Details From VTSB - Surat Thani
To VTSP - Phuket Intl
Flight Number -
Tags Generated
Created
Modified
Stats Distance 78 nm / 144 km
Max Altitude 0 ft / 0 m
Waypoints 2
Social Downloads 3
Likes 0
Share VATSIM

Download

Looking for another format? Having issues loading an existing format? Contact us
Advertisement - Login to hide

Notes

Generated

Route

VTSB VTSP

ID Type Via Altitude Latitude Longitude Leg Dist Tot Dist Heading (true) Name
O VTSB APT - 0 ft / 0 m 9.12283˚ 99.12603˚ - 0 nm - -
O VTSP APT - 0 ft / 0 m 8.11189˚ 98.30327˚ 77 nm 77 nm 219° / 219° -

Altitude Profile

Advertisement - Login to hide

VTSB

Details ICAO VTSB (URT)
Name Surat Thani
Region Thailand
Timezone Asia/Bangkok (UTC+7.0)
Stats Elevation 20 ft / 6 m (AMSL)
Location 9.132603° 99.135586°
Runways 1
Magnetic Variation 0.403° W

METAR

VTSB 270100Z VRB02KT 9999 SCT020 26/25 Q1010

Decode

TAF

TAF VTSB 262300Z 2700/2724 22008KT 5000 BR FEW020 BECMG 2702/2704 9999 NSW TEMPO 2707/2713 VRB10G20KT 6000 -TSRA FEW016CB SCT018 BKN100

Decode

Departure Runways

ID Width Length Bearing (true) Bearing (mag) Surface Threshold Offset Overrun Length
04 148 ft / 45 m 9,912 ft / 3,021 m 43.98° 44.38° Asphalt 0 ft / 0 m 250 ft / 76 m
22 148 ft / 45 m 9,912 ft / 3,021 m 223.99° 224.39° Asphalt 0 ft / 0 m 230 ft / 70 m

VTSP

Details ICAO VTSP (HKT)
Name Phuket Intl
Region Thailand
Timezone Asia/Bangkok (UTC+7.0)
Stats Elevation 82 ft / 25 m (AMSL)
Location 8.113199° 98.316871°
Runways 1
Magnetic Variation 0.423° W

METAR

VTSP 270130Z VRB02KT 9999 FEW020 BKN100 27/24 Q1012 NOSIG

Decode

TAF

TAF VTSP 262300Z 2700/2806 VRB02KT 9000 SCT020 BKN100 BECMG 2700/2702 27008KT FEW020 TEMPO 2708/2712 VRB10G20KT 5000 TSRA FEW018CB SCT020 BKN100

Decode

Destination Runways

ID Width Length Bearing (true) Bearing (mag) Surface Threshold Offset Overrun Length
09 148 ft / 45 m 9,870 ft / 3,008 m 84.45° 84.87° Asphalt 0 ft / 0 m 197 ft / 60 m
27 148 ft / 45 m 9,870 ft / 3,008 m 264.46° 264.88° Asphalt 0 ft / 0 m 197 ft / 60 m

Approach Navaids

Runway Type Ident Frequency Range Bearing (true) Bearing (mag) Slope Elevation
27 Localiser IPKT 109.90 MHz 18 nm / 33 km 263.45° 263.88° - 19 ft / 6 m (AMSL)
27 Glidescope IPKT 109.90 MHz 10 nm / 19 km 263.45° 263.88° 3.20° 82 ft / 25 m (AMSL)
27 DME IPKT 109.90 MHz 18 nm / 33 km - - - 82 ft / 25 m (AMSL)

Popular Alternatives